Overview Statistics Trail Chart Weather Telemetry Raw packets
 

This is the latest recevied weather packets stored in our database for station/object W0WC. If no packets are shown the sender has not sent any weather packets the latest 10 day(s).

<< 76 77 78 79 80 81 82 >>
Time Temp. Humidity Pressure Rain* Wind** Luminosity Snow
1788142393 32.22° C 39% 1014.2 hPa 0 mm - 0 W/m² -
1788142090 32.22° C 39% 1014.1 hPa 0 mm - 0 W/m² -
1788141789 32.22° C 39% 1014.2 hPa 0 mm - 0 W/m² -
1788141484 32.78° C 39% 1014.1 hPa 0 mm - 0 W/m² -
1788141180 32.78° C 39% 1014 hPa 0 mm - 0 W/m² -
1788140879 32.78° C 39% 1013.9 hPa 0 mm - 0 W/m² -
1788140574 32.78° C 39% 1013.9 hPa 0 mm - 0 W/m² -
1788140271 32.78° C 39% 1013.8 hPa 0 mm - 0 W/m² -
1788139970 32.78° C 39% 1013.7 hPa 0 mm - 0 W/m² -
1788139665 33.33° C 38% 1013.9 hPa 0 mm - 0 W/m² -
1788139361 33.33° C 37% 1013.9 hPa 0 mm - 0 W/m² -
1788139059 33.89° C 37% 1013.7 hPa 0 mm - 0 W/m² -
1788138756 33.89° C 37% 1014 hPa 0 mm - 0 W/m² -
1788138451 33.89° C 36% 1013.6 hPa 0 mm - 0 W/m² -
1788138151 34.44° C 36% 1013.9 hPa 0 mm - 1 W/m² -
1788137846 34.44° C 35% 1013.8 hPa 0 mm - 2 W/m² -
1788137541 35° C 35% 1013.7 hPa 0 mm - 3 W/m² -
1788137237 35° C 34% 1013.8 hPa 0 mm - 5 W/m² -
1788136933 35° C 34% 1013.9 hPa 0 mm - 9 W/m² -
1788136629 35.56° C 34% 1013.8 hPa 0 mm - 13 W/m² -
1788136325 35.56° C 33% 1013.8 hPa 0 mm - 18 W/m² -
1788136023 35.56° C 33% 1013.7 hPa 0 mm - 21 W/m² -
1788135718 36.11° C 32% 1013.8 hPa 0 mm - 26 W/m² -
1788135414 36.11° C 32% 1013.7 hPa 0 mm - 35 W/m² -
1788135109 36.11° C 32% 1013.7 hPa 0 mm - 41 W/m² -

* Rain latest hour (hover to see other rain measurements)
** Current wind speed in m/s (hover to see current wind gust speed)